#timestamp,LO_Frequency,Hit,StdDev 
1538377215.3,286046998.9,N
1538377235.1,286046996.8,N
1538377255.8,286046995.0,N
1538377275.7,286046997.7,N
1538377295.5,286047000.5,N
1538377315.3,286047000.0,N
1538377335.2,286047000.1,N
1538377355.0,286047000.7,N
1538377355.9,286047000.7,N
1538377375.8,286047001.0,N
1538377395.6,286047000.2,N
1538377415.4,286047001.1,N
1538377435.3,286047004.3,N
1538377455.1,286047002.6,N
1538377475.8,286047005.8,N
1538377495.7,286047003.6,N
1538377515.5,286047004.6,N
1538377535.4,286047005.8,N
1538377555.2,286047002.0,N
1538377575.0,286047003.3,N
1538377575.9,286047003.3,N
1538377595.8,286047006.6,N
1538377615.6,286047006.7,N
1538377635.4,286047007.2,N
1538377655.3,286047005.1,N
1538377675.1,286047002.6,N
1538377695.9,286047001.9,N
1538377715.7,286047004.3,N
1538377735.5,286047003.8,N
1538377755.4,286047004.9,N
1538377775.2,286047003.5,N
1538377795.0,286047004.8,N
1538377795.9,286047004.8,N
1538377815.8,286047001.8,N
1538377835.6,286047001.8,N
1538377855.4,286047002.2,N
1538377875.3,286047000.4,N
1538377895.1,286047001.9,N
1538377915.9,286047002.4,N
1538377935.7,286047002.8,N
1538377955.5,286046999.8,N
1538377975.4,286047002.2,N
1538377995.2,286047004.3,N
1538378015.0,286047002.5,N
1538378015.9,286047002.5,N
1538378035.8,286047001.6,N
1538378055.6,286047000.0,N
1538378075.5,286047002.0,N
1538378095.3,286047007.4,Y
1538378115.1,286046999.7,P
1538378135.9,286047000.2,N
1538378155.7,286047004.2,N
1538378175.5,286047001.8,N
1538378195.4,286047002.9,N
1538378215.2,286047002.9,N
1538378235.1,286047003.6,N
1538378236.0,286047003.6,N
1538378255.8,286047003.4,N
1538378275.6,286047004.3,N
1538378295.5,286047004.8,Y
1538378315.3,286047002.5,P
1538378335.2,286047002.5,P
1538378355.9,286047001.4,P
1538378375.7,286046998.6,N
1538378395.6,286046998.5,N
1538378415.4,286047000.6,N
1538378435.2,286046998.2,N
1538378455.1,286046998.2,N
1538378456.0,286046998.2,N
1538378475.8,286046999.1,N
1538378495.7,286046998.4,N
1538378515.5,286046996.7,N
1538378535.3,286046998.4,N
1538378555.2,286047000.3,N
1538378575.9,286046998.7,N
1538378595.7,286046995.7,N
1538378615.6,286046997.6,N
1538378635.4,286046996.9,N
1538378655.2,286046999.9,N
1538378675.1,286046998.9,N
1538378676.0,286046998.9,N
1538378695.8,286047000.0,N
1538378715.7,286046996.9,N
1538378735.5,286046997.0,N
1538378755.3,286046999.4,N
1538378775.2,286046997.0,N
1538378795.0,286046995.0,N
1538378795.9,286046995.0,N
1538378815.7,286047001.2,N
1538378835.6,286047000.6,N
1538378855.4,286046998.9,N
1538378875.3,286046999.5,N
1538378895.1,286046996.8,N
1538378896.0,286046996.8,N
1538378915.8,286047011.9,Y
1538378935.7,286047000.0,P
1538378955.5,286047001.9,N
1538378975.3,286047001.3,N
1538378995.2,286047001.5,N
1538379015.0,286047002.7,N
1538379015.9,286047002.7,N
1538379035.8,286047002.2,N
1538379055.6,286047000.8,N
1538379075.4,286047002.3,N
1538379095.3,286046999.2,N
1538379115.1,286046996.8,N
1538379135.8,286046999.1,N
1538379155.7,286046998.0,N
1538379175.5,286046997.7,N
1538379195.4,286046995.3,N
1538379215.2,286046995.6,N
1538379235.0,286046997.3,N
1538379235.9,286046997.3,N
1538379255.8,286046998.0,N
1538379275.6,286046997.8,N
1538379295.4,286046998.8,N
1538379315.3,286046996.6,N
1538379335.1,286046998.8,N
1538379355.8,286047001.2,N
1538379375.7,286047000.1,N
1538379395.5,286047000.3,N
1538379415.4,286046999.9,N
1538379435.2,286046998.4,N
1538379455.0,286046998.2,N
1538379455.9,286046998.2,N
1538379475.8,286047000.5,N
1538379495.6,286047000.7,N
1538379515.4,286046999.2,N
1538379535.3,286047000.1,N
1538379555.1,286047002.1,N
1538379575.8,286047000.2,N
1538379595.7,286046998.8,N
1538379615.5,286046998.3,N
1538379635.4,286047000.5,N
1538379655.2,286047001.5,N
1538379675.0,286047000.9,N
1538379675.9,286047000.9,N
1538379695.8,286046999.9,N
1538379715.6,286046996.9,N
1538379735.5,286046998.4,N
1538379755.3,286046996.7,N
1538379775.1,286046997.9,N
1538379795.9,286046996.6,N
1538379815.7,286046997.9,N
1538379835.5,286046997.0,N
1538379855.4,286046995.8,N
1538379875.2,286046994.9,Y
1538379895.1,286046997.6,P
1538379896.0,286046997.6,P
1538379915.8,286046996.4,P
1538379935.6,286046996.5,Y
1538379955.5,286047003.4,P
1538379975.3,286047004.3,N
1538379995.1,286047000.5,N
1538380015.9,286047002.8,N
1538380035.7,286046999.8,N
1538380055.6,286047001.5,N
1538380075.4,286047001.3,N
1538380095.2,286047002.7,N
1538380115.1,286047003.4,N
1538380116.0,286047003.4,N
1538380135.8,286047004.7,N
1538380155.6,286047003.9,N
1538380175.5,286047001.3,N
1538380195.3,286047004.8,N
1538380215.1,286047003.0,N
1538380235.9,286047002.6,N
1538380255.7,286047003.1,N
1538380275.6,286047006.0,Y
1538380295.4,286046998.3,P
1538380315.2,286046997.2,N
1538380335.1,286046995.3,N
1538380336.0,286046995.3,N
1538380355.8,286046995.2,N
1538380375.6,286046995.9,N
1538380395.5,286046995.5,N
1538380415.3,286046996.5,N
1538380435.1,286046993.4,N
1538380455.9,286046996.3,N
1538380475.7,286046994.7,N
1538380495.5,286046994.8,N
1538380515.4,286046991.7,Y
1538380535.2,286046995.9,P
1538380555.1,286046995.1,P
1538380556.0,286046995.1,P
1538380575.8,286046997.2,Y
1538380595.6,286047002.6,P
1538380615.5,286047000.2,N
1538380635.3,286046998.3,N
1538380655.1,286046998.5,N
1538380675.9,286046998.1,N
1538380695.7,286046998.6,N
1538380715.6,286046998.7,N
1538380735.4,286046998.2,N
1538380755.2,286047001.0,N
1538380775.1,286047000.1,N
1538380776.0,286047000.1,N
1538380795.8,286046999.8,N
